Weather reports worldwide

Advertisment
Thorney Island, United Kingdom (3872): temperature & dewpoint: 17.03.2019 09:00:00 - 23.03.2019 09:00:00 (GMT)Thorney Island, United Kingdom (3872): temperature -20cm & temperature -100cm: 17.03.2019 09:00:00 - 23.03.2019 09:00:00 (GMT)Thorney Island, United Kingdom (3872): wind speed & gusts: 17.03.2019 09:00:00 - 23.03.2019 09:00:00 (GMT)Thorney Island, United Kingdom (3872): wind direction: 17.03.2019 09:00:00 - 23.03.2019 09:00:00 (GMT)Thorney Island, United Kingdom (3872): reduced air pressure: 17.03.2019 09:00:00 - 23.03.2019 09:00:00 (GMT)Thorney Island, United Kingdom (3872): visibility: 17.03.2019 09:00:00 - 23.03.2019 09:00:00 (GMT)Thorney Island, United Kingdom (3872): precipitation: 17.03.2019 09:00:00 - 23.03.2019 09:00:00 (GMT)
Date & Time tt [°C] td [°C] tt -20cm [°C] tt -100cm [°C] ff [km/h] ff [kn] fx [km/h] fx [kn] dd ppp [hPa] vv [km] rr [mm]
23.03.2019 09:00:00 10,2 8,4 9,7 9,2 5 3 - - NE 1031,3 11 0,0
23.03.2019 08:00:00 9,4 8,0 - - 8 4 - - NE 1030,9 11 0,0
23.03.2019 07:00:00 8,8 8,3 - - 5 3 - - NW 1030,6 3,9 0,0
23.03.2019 06:00:00 8,6 8,1 - - 4 2 - - NW 1030,1 2,9 0,0
23.03.2019 05:00:00 8,7 8,3 - - 5 3 - - NW 1029,7 3,1 0,0
23.03.2019 04:00:00 8,7 8,3 - - 5 3 - - NW 1029,7 3,8 0,0
23.03.2019 03:00:00 7,8 7,2 - - 2 1 - - N 1029,3 1,0 0,0
23.03.2019 02:00:00 8,6 7,8 - - 4 2 - - SSW 1029,2 2,7 0,0
23.03.2019 01:00:00 9,1 8,3 - - 8 4 - - SW 1029,1 4,8 0,0
23.03.2019 00:00:00 9,2 8,4 - - 8 4 - - W 1028,9 4,8 0,0
22.03.2019 23:00:00 9,0 8,1 - - 5 3 - - W 1029,0 5 0,0
22.03.2019 22:00:00 9,0 8,0 - - 5 3 - - WSW 1028,8 5 0,0
22.03.2019 21:00:00 9,1 7,8 - - 5 3 - - W 1028,8 7 0,0
22.03.2019 20:00:00 9,0 7,8 - - 8 4 - - WSW 1028,6 7 0,0
22.03.2019 19:00:00 9,2 7,8 - - 9 5 - - WSW 1028,5 9 0,0
22.03.2019 18:00:00 9,6 7,5 - - 11 6 - - WSW 1027,9 15 0,0
22.03.2019 17:00:00 9,8 7,5 - - 13 7 - - SW 1027,8 21 0,0
22.03.2019 16:00:00 9,1 7,4 - - 16 9 - - SSW 1027,8 17 0,0
22.03.2019 15:00:00 9,5 7,7 - - 11 6 - - S 1028,2 22 0,0
22.03.2019 14:00:00 9,4 7,4 - - 11 6 - - S 1028,4 27 0,0
22.03.2019 13:00:00 9,5 7,0 - - 9 5 - - SW 1028,8 40 0,0
22.03.2019 12:00:00 9,5 7,1 - - 9 5 - - S 1029,1 35 0,0
22.03.2019 11:00:00 9,3 6,9 - - 9 5 - - WSW 1029,4 35 0,0
22.03.2019 10:00:00 9,0 7,0 - - 13 7 - - WSW 1029,6 20 0,0
22.03.2019 09:00:00 9,0 7,1 9,7 9,2 11 6 - - SW 1029,8 20 0,0
22.03.2019 08:00:00 8,7 6,9 - - 9 5 - - SW 1029,7 20 0,0
22.03.2019 07:00:00 8,5 6,7 - - 11 6 - - SW 1029,6 24 0,0
22.03.2019 06:00:00 8,4 6,6 - - 13 7 - - SSW 1029,5 40 0,0
22.03.2019 05:00:00 8,5 6,6 - - 11 6 - - SW 1029,8 45 0,0
22.03.2019 04:00:00 8,7 6,5 - - 16 9 - - S 1030,0 50 0,0
22.03.2019 03:00:00 8,8 6,7 - - 16 9 - - SSW 1030,5 50 0,0
22.03.2019 02:00:00 8,8 6,5 - - 13 7 - - SSE 1030,8 40 0,0
22.03.2019 01:00:00 8,8 8,4 - - 9 5 - - SSE 1030,8 8 0,0
22.03.2019 00:00:00 8,7 8,3 - - 8 4 - - SE 1031,0 7 0,0
21.03.2019 23:00:00 8,9 8,5 - - 8 4 - - ESE 1031,7 8 0,0
21.03.2019 22:00:00 8,9 8,4 - - 8 4 - - SSE 1032,1 9 0,0
21.03.2019 21:00:00 9,0 8,5 - - 5 3 - - SSE 1032,7 10 0,0
21.03.2019 20:00:00 9,2 8,5 - - 8 4 - - SSE 1032,5 12 0,0
21.03.2019 19:00:00 9,4 8,6 - - 5 3 - - SSE 1032,6 18 0,0
21.03.2019 18:00:00 9,6 8,8 - - 4 2 - - S 1032,4 16 0,0
21.03.2019 17:00:00 9,6 8,8 - - 13 7 - - S 1032,4 12 0,0
21.03.2019 16:00:00 10,0 8,8 - - 11 6 - - S 1032,4 14 0,0
21.03.2019 15:00:00 10,4 9,0 - - 8 4 - - SSW 1032,9 17 0,0
21.03.2019 14:00:00 10,3 8,7 - - 11 6 - - S 1033,5 14 0,0
21.03.2019 13:00:00 11,2 8,7 - - 9 5 - - SW 1034,1 15 0,0
21.03.2019 12:00:00 10,9 8,5 - - 9 5 - - SW 1034,6 25 0,0
21.03.2019 11:00:00 10,8 8,4 - - 8 4 - - WSW 1034,7 35 0,0
21.03.2019 10:00:00 10,3 8,5 - - 5 3 - - NW 1034,8 50 0,0
21.03.2019 09:00:00 9,5 9,1 9,4 9,0 5 3 - - W 1034,7 4,6 0,0
21.03.2019 08:00:00 9,3 8,9 - - 8 4 - - WSW 1034,3 4,0 0,0
21.03.2019 07:00:00 9,1 8,6 - - 8 4 - - W 1034,0 3,6 0,0
21.03.2019 06:00:00 9,0 8,5 - - 8 4 - - W 1033,7 6 0,0
21.03.2019 05:00:00 9,1 8,4 - - 9 5 - - WSW 1033,5 9 0,0
21.03.2019 04:00:00 9,0 8,4 - - 11 6 - - WSW 1033,3 11 0,0
21.03.2019 03:00:00 9,0 8,4 - - 9 5 - - WSW 1033,4 21 0,0
21.03.2019 02:00:00 8,9 8,3 - - 13 7 - - WSW 1033,6 15 0,0
21.03.2019 01:00:00 9,0 8,3 - - 8 4 - - WSW 1034,0 9 0,0
21.03.2019 00:00:00 9,0 8,2 - - 9 5 - - WSW 1034,1 11 0,0
20.03.2019 23:00:00 8,9 7,9 - - 9 5 - - SW 1034,1 27 0,0
20.03.2019 22:00:00 8,8 8,4 - - 8 4 - - SW 1034,2 8 0,0
20.03.2019 21:00:00 8,9 8,4 - - 11 6 - - SW 1034,3 6 0,0
20.03.2019 20:00:00 9,3 8,0 - - 13 7 - - SW 1034,1 21 0,0
20.03.2019 19:00:00 9,6 8,1 - - 15 8 - - WSW 1033,9 40 0,0
20.03.2019 18:00:00 10,0 8,2 - - 15 8 - - WSW 1033,5 50 0,0
20.03.2019 17:00:00 10,4 8,6 - - 15 8 - - WSW 1033,2 50 0,0
20.03.2019 16:00:00 10,0 9,1 - - 15 8 - - SSW 1033,2 50 0,0
20.03.2019 15:00:00 10,5 8,5 - - 15 8 - - SSW 1033,3 35 0,0
20.03.2019 14:00:00 11,5 8,4 - - 18 10 - - WSW 1033,5 35 0,0
20.03.2019 13:00:00 11,6 9,1 - - 16 9 - - SW 1033,6 50 0,0
20.03.2019 12:00:00 10,7 8,7 - - 8 4 - - SSW 1033,9 35 0,0
20.03.2019 11:00:00 10,9 8,7 - - 11 6 - - W 1034,0 50 0,0
20.03.2019 10:00:00 10,4 8,9 - - 15 8 - - W 1033,6 23 0,0
20.03.2019 09:00:00 10,0 9,3 9,0 9,0 9 5 - - WSW 1033,5 15 0,0
20.03.2019 08:00:00 9,2 8,7 - - 15 8 - - W 1033,0 10 0,0
20.03.2019 07:00:00 8,9 8,6 - - 8 4 - - S 1032,2 10 0,0
20.03.2019 06:00:00 8,5 8,1 - - 4 2 - - SW 1031,8 10 0,0
20.03.2019 05:00:00 8,7 8,2 - - 4 2 - - WNW 1031,3 13 0,0
20.03.2019 04:00:00 8,7 8,2 - - 5 3 - - SW 1030,9 18 0,0
20.03.2019 03:00:00 8,8 8,2 - - 8 4 - - SSW 1031,1 18 0,0
20.03.2019 02:00:00 8,5 7,8 - - 4 2 - - WSW 1031,2 16 0,0
20.03.2019 01:00:00 8,7 8,0 - - 5 3 - - WSW 1031,3 15 0,0
20.03.2019 00:00:00 8,7 7,9 - - 9 5 - - WSW 1031,1 17 0,0
19.03.2019 23:00:00 8,8 7,7 - - 13 7 - - WSW 1031,0 16 0,0
19.03.2019 22:00:00 9,1 7,8 - - 11 6 - - WSW 1031,0 14 0,0
19.03.2019 21:00:00 8,7 7,3 - - 13 7 - - SW 1030,0 16 0,0
19.03.2019 20:00:00 9,4 7,9 - - 13 7 - - WSW 1030,4 20 0,0
19.03.2019 19:00:00 9,6 8,0 - - 11 6 - - WSW 1029,9 22 0,0
19.03.2019 18:00:00 9,8 8,1 - - 11 6 - - SW 1029,1 30 0,0
19.03.2019 17:00:00 9,9 8,5 - - 13 7 - - SSW 1028,8 14 0,0
19.03.2019 16:00:00 10,0 8,5 - - 18 10 - - SSW 1028,5 25 0,0
19.03.2019 15:00:00 10,0 8,5 - - 18 10 - - SW 1028,5 19 0,0
19.03.2019 14:00:00 10,2 8,4 - - 18 10 - - SSW 1028,4 24 0,0
19.03.2019 13:00:00 10,5 7,9 - - 13 7 - - S 1028,5 30 0,0
19.03.2019 12:00:00 11,3 8,8 - - 11 6 - - S 1028,6 35 0,0
19.03.2019 11:00:00 10,5 8,2 - - 11 6 - - S 1028,4 30 0,0
19.03.2019 10:00:00 9,5 7,6 - - 8 4 - - SW 1028,1 23 0,0
19.03.2019 09:00:00 8,0 7,6 8,7 9,0 5 3 - - WSW 1027,9 12 0,0
19.03.2019 08:00:00 6,6 6,4 - - 5 3 - - WSW 1027,3 7 0,0
19.03.2019 07:00:00 5,6 5,3 - - 0 0 - - N 1026,9 4,7 0,0
19.03.2019 06:00:00 5,7 5,4 - - 4 2 - - NW 1026,4 6 0,0
19.03.2019 05:00:00 5,7 5,4 - - 5 3 - - WNW 1026,3 9 0,0
19.03.2019 04:00:00 5,5 5,2 - - 8 4 - - WNW 1025,7 10 0,0
19.03.2019 03:00:00 5,2 4,9 - - 0 0 - - N 1025,4 4,4 0,0
19.03.2019 02:00:00 5,1 4,8 - - 0 0 - - N 1025,5 4,1 0,0
19.03.2019 01:00:00 5,0 4,6 - - 2 1 - - NNE 1025,4 4,7 0,2
19.03.2019 00:00:00 5,5 5,1 - - 2 1 - - ESE 1025,2 17 0,0
18.03.2019 23:00:00 5,6 5,2 - - 5 3 - - E 1024,9 7 0,0
18.03.2019 22:00:00 6,9 6,3 - - 5 3 - - W 1024,7 16 0,0
18.03.2019 21:00:00 6,2 5,6 - - 8 4 - - WSW 1024,4 15 0,0
18.03.2019 20:00:00 6,3 5,5 - - 8 4 - - WSW 1024,0 30 0,0
18.03.2019 19:00:00 6,7 5,5 - - 9 5 - - WSW 1023,4 40 0,0
18.03.2019 18:00:00 8,1 6,3 - - 16 9 - - W 1023,1 8 0,0
18.03.2019 17:00:00 9,2 5,2 - - 21 11 - - W 1022,4 40 0,0
18.03.2019 16:00:00 9,7 4,5 - - 11 6 - - W 1022,0 29 0,0
18.03.2019 15:00:00 9,2 4,6 - - 9 5 - - WNW 1022,1 45 0,2
18.03.2019 14:00:00 11,1 3,8 - - 22 12 - - WNW 1021,6 45 0,0
18.03.2019 13:00:00 10,5 3,4 - - 22 12 - - W 1021,7 40 0,0
18.03.2019 12:00:00 11,1 4,1 - - 15 8 - - W 1021,8 30 0,0
18.03.2019 11:00:00 10,0 4,6 - - 13 7 - - NW 1022,1 19 0,0
18.03.2019 10:00:00 8,6 4,7 - - 15 8 - - WNW 1021,8 30 0,0
18.03.2019 09:00:00 6,4 3,6 8,7 9,0 13 7 - - W 1021,4 22 0,0
18.03.2019 08:00:00 5,5 3,1 - - 13 7 - - WNW 1021,0 40 0,0
18.03.2019 07:00:00 4,4 2,7 - - 15 8 - - W 1020,3 26 0,0
18.03.2019 06:00:00 3,5 2,1 - - 9 5 - - W 1019,8 30 0,0
18.03.2019 05:00:00 3,1 1,4 - - 8 4 - - W 1019,4 30 0,0
18.03.2019 04:00:00 3,0 1,7 - - 4 2 - - NW 1018,8 40 0,0
18.03.2019 03:00:00 3,7 1,7 - - 2 1 - - NE 1018,2 30 0,0
18.03.2019 02:00:00 5,1 2,9 - - 15 8 - - WNW 1017,7 40 0,0
18.03.2019 01:00:00 4,9 2,7 - - 16 9 - - WNW 1016,9 45 0,0
18.03.2019 00:00:00 5,2 2,7 - - 13 7 - - WNW 1016,0 50 0,0
17.03.2019 23:00:00 5,2 3,3 - - 13 7 - - WNW 1015,4 30 0,0
17.03.2019 22:00:00 5,7 3,7 - - 15 8 - - WNW 1014,4 35 0,0
17.03.2019 21:00:00 6,0 3,4 - - 22 12 - - W 1013,4 35 0,0
17.03.2019 20:00:00 6,4 2,8 - - 22 12 - - W 1012,7 45 0,0
17.03.2019 19:00:00 7,3 1,8 - - 28 15 - - W 1011,8 35 0,0
17.03.2019 18:00:00 8,0 0,3 - - 28 15 48 26 W 1011,1 45 0,0
17.03.2019 17:00:00 8,9 -1,7 - - 35 19 54 29 W 1010,0 50 0,0
17.03.2019 16:00:00 9,1 -0,8 - - 31 17 50 27 W 1009,2 35 0,0
17.03.2019 15:00:00 9,8 -0,8 - - 37 20 50 27 W 1008,9 40 0,0
17.03.2019 14:00:00 9,9 -0,4 - - 31 17 50 27 W 1008,4 45 0,0
17.03.2019 13:00:00 9,2 0,2 - - 31 17 - - W 1008,2 45 0,0
17.03.2019 12:00:00 9,3 1,6 - - 29 16 48 26 W 1007,9 35 0,0
17.03.2019 11:00:00 7,9 2,2 - - 26 14 - - W 1007,5 50 0,0
17.03.2019 10:00:00 7,3 2,2 - - 28 15 - - W 1006,8 40 0,0
17.03.2019 09:00:00 6,4 2,5 9,0 9,0 24 13 - - W 1005,9 35 0,0

tt = temperature
td = dewpoint
tt -20cm = temperature -20cm
tt -100cm = temperature -100cm
ff = wind speed
fx = gusts
dd = wind direction
ppp = reduced air pressure
vv = visibility
rr = precipitation

Next stations